Home   Weather   Bloomington   Past weeks

Flag for USA Past Weather in Bloomington, Illinois, USA — Yesterday and Last 2 Weeks

Now
69 °F

Sunny.


Feels Like: 69 °F
Forecast: 49 / 70 °F
Wind: 16 mph from West

Location: Bloomington / Normal

Current Time: Sep 27, 2016 at 2:06:23 PM

Latest Report: Sep 27, 2016 at 11:56 AM


Visibility: 10 mi

Pressure: 29.96 "Hg

Humidity: 33%

Dew Point: 39 °F

Location of BloomingtonLocation

Past Weather in Bloomington — Graph

°F

Bloomington Temperature Yesterday

Maximum temperature yesterday: 71 °F (at 2:56 PM)
Minimum temperature yesterday: 53 °F (at 11:56 PM)
Average temperature yesterday: 63 °F

High & Low Weather Summary for the Past Weeks

 TemperatureHumidityPressure
High89 °F (Sep 20, 3:56 PM)100% (Sep 14, 4:56 AM)30.29 "Hg (Sep 14, 4:56 AM)
Low51 °F (Sep 27, 3:56 AM)24% (Sep 26, 4:56 PM)29.96 "Hg (Sep 27, 11:56 AM)
Average72 °F73%30.11 "Hg
* Reported Sep 12 11:56 AM — Sep 27 11:56 AM, Bloomington, Weather by CustomWeather, © 2016

Note: Actual official high and low records may vary slightly from our data, if they occured in-between our weather recording intervals... More about our weather records

Advertising

Bloomington Weather History for the Previous 24 Hours

Scroll right to see more
 ConditionsComfort  
Time TempWeatherWind HumidityBarometerVisibility
11:56 AM
Tue, Sep 27
69 °FSunny.16 mph33%29.96 "Hg10 mi
10:56 AM67 °FSunny.12 mph42%29.98 "Hg10 mi
9:56 AM62 °FSunny.10 mph56%30.00 "Hg10 mi
8:56 AM57 °FSunny.9 mph67%30.01 "Hg10 mi
7:56 AM54 °FSunny.9 mph74%30.01 "Hg10 mi
6:56 AM52 °FSunny.9 mph77%30.01 "Hg10 mi
5:56 AM53 °FClear.13 mph72%30.01 "Hg10 mi
4:56 AM53 °FClear.13 mph72%30.01 "Hg10 mi
3:56 AM51 °FClear.12 mph77%30.01 "Hg10 mi
2:56 AM52 °FClear.8 mph72%30.03 "Hg10 mi
1:56 AM53 °FClear.9 mph66%30.05 "Hg10 mi
12:56 AM54 °FClear.9 mph64%30.06 "Hg10 mi
11:56 PM
Mon, Sep 26
53 °FClear.9 mph64%30.07 "Hg10 mi
10:56 PM57 °FClear.9 mph51%30.08 "Hg10 mi
9:56 PM59 °FClear.7 mph46%30.09 "Hg10 mi
8:56 PM61 °FClear.9 mph41%30.09 "Hg10 mi
7:56 PM62 °FClear.9 mph37%30.09 "Hg10 mi
6:56 PM65 °FClear.10 mph32%30.08 "Hg10 mi
5:56 PM69 °FSunny.18 mph24%30.07 "Hg10 mi
4:56 PM71 °FSunny.18 mph24%30.07 "Hg10 mi
3:56 PM71 °FSunny.18 mph25%30.08 "Hg10 mi
2:56 PM71 °FSunny.17 mph26%30.09 "Hg10 mi
Weather by CustomWeather, © 2016

See weather overviewHow to use our weather pages